Weather History for KTTA - August, 2014

Change the Weather History Date:

Tuesday, August 19, 2014

  Actual Average (KRDU) Record (KRDU)
Temperature  
Mean Temperature 76 °F 78 °F  
Max Temperature 86 °F 88 °F 103 °F (1988)
Min Temperature 66 °F 69 °F 58 °F (1977)
Degree Days  
Heating Degree Days 0 0  
Month to date heating degree days 0  
Since 1 June heating degree days 4  
Since 1 July heating degree days 0  
Cooling Degree Days 11 13  
Month to date cooling degree days 270  
Year to date cooling degree days 1292  
Since 1 June cooling degree days 1083  
Growing Degree Days 26 (Base 50)    
Moisture  
Dew Point 72 °F    
Average Humidity 87    
Maximum Humidity 100    
Minimum Humidity 61    
Precipitation  
Precipitation 0.00 in 0.13 in 2.08 in (2012)
Month to date precipitation 2.51  
Year to date precipitation 27.79  
Sea Level Pressure  
Sea Level Pressure 29.83 in    
Wind  
Wind Speed 1 mph (North)    
Max Wind Speed 8 mph    
Max Gust Speed -    
Visibility 8 miles    
Events      
T = Trace of Precipitation, MM = Missing Value Source: NWS Daily Summary

Daily Weather History Graph

Daily Weather History Graph

Search for Another Location

Airport or City:

Trip Planner

Search our weather history database for the weather conditions in past years. The results will help you decide how hot, cold, wet, or windy it might be!

Date:

Astronomy

Aug. 19, 2014 Rise Set
Actual Time 6:38 AM EDT 8:00 PM EDT
Civil Twilight 6:11 AM EDT 8:27 PM EDT
Nautical Twilight 5:39 AM EDT 8:59 PM EDT
Astronomical Twilight 5:06 AM EDT 9:32 PM EDT
Moon 1:32 AM EDT (8/19) 3:52 PM EDT (8/19)
Length of Visible Light 14h 15m
Length of Day
13h 22m
Waning Crescent, 29% of the Moon is Illuminated
Aug 19
Waning Crescent
Aug 25
New
Sep 2
First Quarter
Sep 8
Full
Sep 15
Last Quarter

Hourly Weather History & Observations

Time (EDT) Temp. Heat Index Dew Point Humidity Pressure Visibility Wind Dir Wind Speed Gust Speed Precip Events Conditions
12:15 AM 70.9 °F - 70.7 °F 99% 29.81 in 7.0 mi Calm Calm - N/A   Clear
12:35 AM 70.0 °F - 69.8 °F 99% 29.81 in 5.0 mi NNE 3.5 mph - N/A   Clear
12:55 AM 70.2 °F - 70.2 °F 100% 29.82 in 5.0 mi Calm Calm - N/A   Clear
1:15 AM 70.0 °F - 70.0 °F 100% 29.82 in 5.0 mi Calm Calm - N/A   Clear
1:35 AM 69.3 °F - 69.3 °F 100% 29.81 in 5.0 mi Calm Calm - N/A   Clear
1:55 AM 68.9 °F - 68.9 °F 100% 29.80 in 3.0 mi Calm Calm - N/A   Clear
2:15 AM 69.1 °F - 69.1 °F 100% 29.80 in 1.0 mi Calm Calm - N/A   Mist
2:35 AM 68.9 °F - 68.9 °F 100% 29.79 in 2.5 mi Calm Calm - N/A   Clear
2:55 AM 68.5 °F - 68.5 °F 100% 29.79 in 2.5 mi Calm Calm - N/A   Clear
3:15 AM 68.2 °F - 68.2 °F 100% 29.79 in 2.0 mi SSW 3.5 mph - N/A   Clear
3:35 AM 69.1 °F - 69.1 °F 100% 29.78 in 10.0 mi Calm Calm - N/A   Clear
3:55 AM 68.0 °F - 68.0 °F 100% 29.79 in 4.0 mi Calm Calm - N/A   Clear
4:15 AM 67.8 °F - 67.8 °F 100% 29.78 in 4.0 mi Calm Calm - N/A   Clear
4:35 AM 68.2 °F - 68.2 °F 100% 29.79 in 7.0 mi Calm Calm - N/A   Clear
4:55 AM 68.2 °F - 68.2 °F 100% 29.79 in 5.0 mi Calm Calm - N/A   Clear
5:15 AM 67.6 °F - 67.6 °F 100% 29.79 in 2.5 mi Calm Calm - N/A   Clear
5:35 AM 67.1 °F - 67.1 °F 100% 29.80 in 5.0 mi Calm Calm - N/A   Mostly Cloudy
5:55 AM 67.5 °F - 67.5 °F 100% 29.81 in 5.0 mi Calm Calm - N/A   Scattered Clouds
6:15 AM 67.5 °F - 67.5 °F 100% 29.81 in 5.0 mi Calm Calm - N/A   Scattered Clouds
6:35 AM 67.3 °F - 67.3 °F 100% 29.81 in 2.0 mi Calm Calm - N/A   Clear
6:55 AM 66.7 °F - 66.7 °F 100% 29.83 in 4.0 mi Calm Calm - N/A   Clear
7:15 AM 68.0 °F - 68.0 °F 100% 29.82 in 4.0 mi Calm Calm - N/A   Clear
7:35 AM 69.1 °F - 69.1 °F 100% 29.83 in 4.0 mi Calm Calm - N/A   Clear
7:55 AM 70.9 °F - 70.7 °F 99% 29.84 in 10.0 mi WSW 3.5 mph - N/A   Clear
8:15 AM 72.0 °F - 70.5 °F 95% 29.83 in 7.0 mi West 3.5 mph - N/A   Clear
8:35 AM 73.6 °F - 71.1 °F 92% 29.84 in 10.0 mi Calm Calm - N/A   Clear
8:55 AM 74.8 °F - 71.4 °F 89% 29.84 in 10.0 mi Calm Calm - N/A   Clear
9:15 AM 76.3 °F - 71.8 °F 86% 29.84 in 10.0 mi Calm Calm - N/A   Clear
9:35 AM 77.4 °F - 72.5 °F 85% 29.85 in 10.0 mi NW 3.5 mph - N/A   Clear
9:55 AM 79.0 °F - 73.2 °F 82% 29.85 in 10.0 mi NNW 3.5 mph - N/A   Clear
10:15 AM 80.1 °F 84.1 °F 72.7 °F 78% 29.86 in 10.0 mi NW 4.6 mph - N/A   Clear
10:35 AM 81.0 °F 85.4 °F 72.5 °F 75% 29.86 in 10.0 mi NNW 5.8 mph - N/A   Clear
10:55 AM 80.8 °F 85.4 °F 73.0 °F 77% 29.86 in 10.0 mi North 5.8 mph - N/A   Scattered Clouds
11:15 AM 81.5 °F 86.1 °F 72.1 °F 73% 29.87 in 10.0 mi Calm Calm - N/A   Scattered Clouds
11:35 AM 82.4 °F 87.7 °F 72.5 °F 72% 29.87 in 10.0 mi Calm Calm - N/A   Scattered Clouds
11:55 AM 82.9 °F 88.5 °F 72.7 °F 71% 29.87 in 10.0 mi Calm Calm - N/A   Scattered Clouds
12:15 PM 82.6 °F 88.6 °F 73.6 °F 74% 29.86 in 10.0 mi Calm Calm - N/A   Scattered Clouds
12:35 PM 82.6 °F 88.1 °F 72.9 °F 72% 29.86 in 10.0 mi Calm Calm - N/A   Mostly Cloudy
12:55 PM 83.7 °F 89.7 °F 73.0 °F 70% 29.86 in 10.0 mi NNE 5.8 mph - N/A   Scattered Clouds
1:15 PM 83.7 °F 89.4 °F 72.3 °F 69% 29.86 in 10.0 mi Calm Calm - N/A   Scattered Clouds
1:35 PM 83.7 °F 89.4 °F 72.3 °F 69% 29.85 in 10.0 mi North 6.9 mph - N/A   Mostly Cloudy
1:55 PM 84.6 °F 90.7 °F 72.5 °F 67% 29.85 in 10.0 mi North 4.6 mph - N/A   Mostly Cloudy
2:15 PM 83.7 °F 89.4 °F 72.7 °F 69% 29.84 in 10.0 mi NE 4.6 mph - N/A   Scattered Clouds
2:35 PM 82.9 °F 89.7 °F 74.5 °F 75% 29.84 in 10.0 mi NNE 5.8 mph - N/A   Scattered Clouds
2:55 PM 85.6 °F 92.2 °F 72.7 °F 65% 29.84 in 10.0 mi NNW 3.5 mph - N/A   Scattered Clouds
3:15 PM 84.7 °F 91.4 °F 73.0 °F 68% 29.83 in 10.0 mi North 6.9 mph - N/A   Scattered Clouds
3:35 PM 84.7 °F 91.7 °F 73.6 °F 69% 29.82 in 10.0 mi NNE 6.9 mph - N/A   Scattered Clouds
3:55 PM 85.1 °F 91.8 °F 73.0 °F 67% 29.82 in 10.0 mi NNE 8.1 mph - N/A   Scattered Clouds
4:15 PM 85.1 °F 91.8 °F 72.9 °F 67% 29.82 in 10.0 mi NNE 4.6 mph - N/A   Clear
4:35 PM 85.1 °F 91.5 °F 72.5 °F 66% 29.82 in 10.0 mi North 5.8 mph - N/A   Scattered Clouds
4:55 PM 86.0 °F 92.6 °F 72.3 °F 64% 29.83 in 10.0 mi ENE 6.9 mph - N/A   Scattered Clouds
5:15 PM 85.6 °F 91.1 °F 71.1 °F 62% 29.83 in 10.0 mi North 4.6 mph - N/A   Clear
5:35 PM 85.5 °F 90.8 °F 70.9 °F 62% 29.82 in 10.0 mi Calm Calm - N/A   Clear
5:55 PM 85.6 °F 90.8 °F 70.9 °F 61% 29.82 in 10.0 mi Calm Calm - N/A   Clear
6:35 PM 82.2 °F 88.3 °F 74.1 °F 76% 29.83 in 10.0 mi Calm Calm - N/A   Clear
6:55 PM 81.3 °F 87.4 °F 75.0 °F 81% 29.83 in 10.0 mi Calm Calm - N/A   Clear
7:15 PM 80.8 °F 86.5 °F 75.2 °F 83% 29.83 in 10.0 mi Calm Calm - N/A   Clear
7:35 PM 79.9 °F - 76.1 °F 88% 29.83 in 10.0 mi Calm Calm - N/A   Clear
7:55 PM 79.5 °F - 76.6 °F 91% 29.84 in 10.0 mi Calm Calm - N/A   Clear
8:15 PM 77.7 °F - 76.1 °F 95% 29.85 in 10.0 mi Calm Calm - N/A   Clear
8:35 PM 77.9 °F - 76.3 °F 95% 29.86 in 10.0 mi Calm Calm - N/A   Scattered Clouds
8:55 PM 76.5 °F - 75.6 °F 97% 29.87 in 7.0 mi South 3.5 mph - N/A   Scattered Clouds
9:15 PM 76.6 °F - 75.6 °F 96% 29.87 in 7.0 mi Calm Calm - N/A   Scattered Clouds
9:35 PM 76.3 °F - 75.6 °F 98% 29.88 in 7.0 mi Calm Calm - N/A   Scattered Clouds
9:55 PM 75.9 °F - 75.2 °F 98% 29.88 in 7.0 mi Calm Calm - N/A   Clear
10:55 PM 75.6 °F - 74.5 °F 96% 29.89 in 7.0 mi SW 3.5 mph - N/A   Clear
11:15 PM 74.3 °F - 73.9 °F 99% 29.89 in 4.0 mi Calm Calm - N/A   Clear
11:35 PM 73.4 °F - 73.0 °F 99% 29.89 in 4.0 mi Calm Calm - N/A   Clear
11:55 PM 73.0 °F - 72.7 °F 99% 29.89 in 0.8 mi Calm Calm - N/A   Mist